IRIDIUM 33 DEB, 38474

Orbit data source: Space-Track

IRIDIUM 33 DEB, 38474 is space debris in LEO originally from a launch on Sun, 14 Sep 1997 UTC launched from the Tyuratam Missile And Space Complex (TTMTR). The debris from Iridium 33, an American commercial communications satellite, has been tracked extensively since its accidental collision with the defunct Russian satellite Cosmos 2251 in 2009. This event, occurring at high speed in low Earth orbit (LEO), generated thousands of pieces of space debris, significantly increasing the risk of further collisions. The Iridium 33 debris cloud has impacted space traffic management and orbital debris mitigation strategies, making it a subject of ongoing study in space situational awareness.

Loading next visibility...
Identifier
38474, 1997-051AAB
Orbit
LEO
Country
Flag of USUS
Related business
Manufacturer
Unknown
Mission
Spacecraft
Bus & Motor
Unknown
Mass
Unknown
Launch date (UTC)
1997-09-14 (28 years ago)
Launch vehicle
Unknown
Launch site
Tyuratam Missile And Space Complex (TTMTR)
Object type
Payload
Rocket body
Debris
Shape & HBR
Unknown
Radar Cross Section
Small (<0.1 m²)

Expand to show TLE details & history
Last TLE update: 1 day ago

TLE from 1 day ago
0 IRIDIUM 33 DEB
1 38474U 97051AAB 25241.74376585  .00002711  00000-0  69252-3 0  9995
2 38474  86.3400  55.7743 0027864  79.5607 280.8735 14.49946947637962
Epoch: 2025-08-29T17:51Z
TLE epoch observation values (Epoch: 2025-08-29T17:51:01.369Z)
Latitude
-0.00007°
Longitude
169.83056°
Altitude
725.213 km
Speed
7.495 km/s
True Right ascension
03h 43m 05s
True Declination
0° 00' 00"
Sunlit
Object was in daylight at epoch
Visualization orbit readout
Latitude
Unknown
Longitude
Unknown
Altitude
Unknown
Speed
Unknown
Apparent Right ascension
Unknown
Apparent Declination
Unknown
Sunlit
N/A
Visualization observer readout
Local Sidereal Time
18:03:20
Azimuth
Unknown
Elevation
Unknown
Doppler factor
Unknown
Orbital elements
Apogee altitude
742.551 km
Perigee altitude
702.979 km
Semi-major axis
7,100.902 km
Eccentricity
0.00279
Inclination
86.34°
RAAN
55.7743°
Arg. of periapsis
79.5607°
True anomaly
280.55973°
Mean anomaly
280.8735°
Eccentric anomaly
280.71664°
Mean motion
3.62721 °/min
Orbital period
99.25 mins
BSTAR
0.00069252
Loading maneuver chart data...
Computing Atmospheric mass density...

Documentation

Showing up to 5 results
|